CZ-6A DEB, 56246

Orbit data source: Space-Track

CZ-6A DEB, 56246 is space debris in SSO originally from a launch on Fri, 11 Nov 2022 UTC launched from the Taiyaun Space Center, China (TSC). Debris objects in space refer to the collection of defunct objects orbiting the Earth. Examples of debris include non-operational satellites, rocket bodies, and fragments generated from explosions, collisions, or faulty payload assembly.

Loading next visibility...
Identifier
56246, 2022-151ABN
Orbit
SSO
Country
Flag of CNCN / PRC
Related business
Manufacturer
SAST
Mission
Spacecraft
Bus & Motor
Unknown
Mass
Unknown
Launch date (UTC)
2022-11-11 (4 years ago)
Launch vehicle
Unknown
Launch site
Taiyaun Space Center, China (TSC)
Object type
Payload
Rocket body
Debris
Shape & HBR
Unknown shape, 0.2 m
Radar Cross Section
Medium (>0.1 m² and <1 m²)

Expand to show TLE details & history
Last TLE update: 7 hours ago

TLE from 7 hours ago
0 CZ-6A DEB
1 56246U 22151ABN 26236.63432136  .00012050  00000-0  96443-3 0  9998
2 56246  98.7156  10.3770 0104382 255.0634 103.9009 14.96119496184850
Epoch: 2026-08-24T15:13Z
TLE epoch observation values (Epoch: 2026-08-24T15:13:25.365Z)
Latitude
0.00002°
Longitude
169.1081°
Altitude
600.079 km
Speed
7.55 km/s
True Right ascension
00h 41m 30s
True Declination
0° 00' 00"
Sunlit
Object was in full shadow at epoch
Visualization orbit readout
Latitude
Unknown
Longitude
Unknown
Altitude
Unknown
Speed
Unknown
Apparent Right ascension
Unknown
Apparent Declination
Unknown
Sunlit
N/A
Visualization observer readout
Local Sidereal Time
13:47:34
Azimuth
Unknown
Elevation
Unknown
Doppler factor
Unknown
Orbital elements
Apogee altitude
648.546 km
Perigee altitude
503.369 km
Semi-major axis
6,954.095 km
Eccentricity
0.01044
Inclination
98.7156°
RAAN
10.377°
Arg. of periapsis
255.0634°
True anomaly
105.05829°
Mean anomaly
103.9009°
Eccentric anomaly
104.47997°
Mean motion
3.74268 °/min
Orbital period
96.19 mins
BSTAR
0.00096443
Loading maneuver chart data...
Computing Atmospheric mass density...
Loading historical data...
Loading historical data...
Loading historical data...
Loading historical data...
Loading historical data...
Loading historical data...
Loading historical data...

Documentation

Showing up to 5 results
|